Weather History for Ft Pierce, FL

Change the Weather History Date:

Thursday, February 28, 2013

  Actual Average Record
Temperature  
Mean Temperature 64 °F -  
Max Temperature 73 °F 77 °F 89 °F (1977)
Min Temperature 55 °F 53 °F 33 °F (1935)
Degree Days  
Heating Degree Days 1    
Growing Degree Days 14 (Base 50)    
Moisture  
Dew Point 48 °F    
Average Humidity 63    
Maximum Humidity 90    
Minimum Humidity 29    
Precipitation  
Precipitation 0.00 in - - ()
Sea Level Pressure  
Sea Level Pressure 29.95 in    
Wind  
Wind Speed 8 mph (WNW)    
Max Wind Speed 12 mph    
Max Gust Speed -    
Visibility 10 miles    
Events      
Averages and records for this station are not official NWS values.
T = Trace of Precipitation, MM = Missing Value Source: NWS Daily Summary

Daily Weather History Graph

Daily Weather History Graph

Search for Another Location

Airport:

Trip Planner

Search our weather history database for the weather conditions in past years. The results will help you decide how hot, cold, wet, or windy it might be!

Date:

Astronomy

Feb. 28, 2013 Rise Set
Actual Time 6:46 AM EST 6:21 PM EST
Civil Twilight 6:23 AM EST 6:45 PM EST
Nautical Twilight 5:55 AM EST 7:12 PM EST
Astronomical Twilight 5:28 AM EST 7:39 PM EST
Moon 9:23 PM EST (2/28) 8:15 AM EST (2/28)
Length of Visible Light 12h 22m
Length of Day
11h 35m
Waning Gibbous, 91% of the Moon is Illuminated
Feb 28
Waning Gibbous
Mar 4
Last Quarter
Mar 11
New
Mar 19
First Quarter
Mar 27
Full

Hourly Weather History & Observations

Time (EST) Temp. Dew Point Humidity Pressure Visibility Wind Dir Wind Speed Gust Speed Precip Events Conditions
12:53 AM 60.1 °F 57.0 °F 90% 29.95 in 10.0 mi West 8.1 mph - N/A   Clear
1:53 AM 59.0 °F 53.1 °F 81% 29.95 in 10.0 mi WNW 10.4 mph - N/A   Clear
2:53 AM 55.9 °F 48.9 °F 77% 29.94 in 10.0 mi WNW 9.2 mph - N/A   Clear
3:53 AM 55.0 °F 48.9 °F 80% 29.95 in 10.0 mi WNW 5.8 mph - N/A   Clear
4:53 AM 55.9 °F 50.0 °F 80% 29.93 in 10.0 mi NW 6.9 mph - N/A   Scattered Clouds
5:53 AM 57.0 °F 48.9 °F 74% 29.96 in 10.0 mi NW 6.9 mph - N/A   Clear
6:53 AM 57.0 °F 48.9 °F 74% 29.97 in 10.0 mi NW 11.5 mph - N/A   Mostly Cloudy
7:53 AM 57.9 °F 48.9 °F 72% 29.99 in 10.0 mi NW 10.4 mph - N/A   Clear
8:53 AM 59.0 °F 48.9 °F 69% 30.00 in 10.0 mi NW 11.5 mph - N/A   Mostly Cloudy
9:53 AM 60.1 °F 48.0 °F 64% 30.02 in 10.0 mi NW 9.2 mph - N/A   Mostly Cloudy
10:53 AM 62.1 °F 48.0 °F 60% 30.01 in 10.0 mi NW 8.1 mph - N/A   Mostly Cloudy
11:53 AM 68.0 °F 43.0 °F 40% 29.99 in 10.0 mi NW 8.1 mph - N/A   Partly Cloudy
12:53 PM 72.0 °F 37.9 °F 29% 29.96 in 10.0 mi Variable 3.5 mph - N/A   Scattered Clouds
1:53 PM 73.0 °F 39.0 °F 29% 29.93 in 10.0 mi Calm Calm - N/A   Clear
2:53 PM 72.0 °F 46.0 °F 40% 29.91 in 10.0 mi Variable 6.9 mph - N/A   Clear
3:53 PM 71.6 °F 46.4 °F 41% 29.90 in 10.0 mi East 8.1 mph - N/A   Clear
4:53 PM 70.0 °F 46.9 °F 44% 29.89 in 10.0 mi ESE 8.1 mph - N/A   Clear
5:53 PM 66.9 °F 48.9 °F 52% 29.91 in 10.0 mi ESE 6.9 mph - N/A   Clear
6:53 PM 64.4 °F 50.0 °F 59% 29.92 in 10.0 mi SSE 5.8 mph - N/A   Scattered Clouds
7:53 PM 60.1 °F 48.9 °F 67% 29.94 in 10.0 mi Calm Calm - N/A   Clear
8:53 PM 55.9 °F 48.0 °F 75% 29.95 in 10.0 mi West 4.6 mph - N/A   Clear
9:53 PM 57.9 °F 48.9 °F 72% 29.95 in 10.0 mi West 5.8 mph - N/A   Scattered Clouds
10:53 PM 62.1 °F 50.0 °F 65% 29.94 in 10.0 mi West 10.4 mph - N/A   Mostly Cloudy
11:53 PM 61.0 °F 50.0 °F 67% 29.94 in 10.0 mi West 6.9 mph - N/A   Scattered Clouds